Retour au catalogue

SL-12 DEB

ActifHEO
NORAD 23294·DEBRIS·🇷🇺 Russia

Lancé Dec 24, 1985 depuis Baikonur Cosmodrome

Loading…

Prochains Passages (prochaines 24 heures)

TLE

VieillissantSource: Space-Track

Époque: Sep 2, 2026, 09:36 UTC

1 23294U 85118R   26245.40033139  .00001101  00000-0  13127-2 0  9994
2 23294  65.1069 358.5931 5446265  33.4658   8.4982  4.73729364 43489

Suivez SL-12 DEB en temps réel avec AllMySat

Download on the App Store